This demonstration page uses our WeatherBlox Daily Observations layout. Learn more.

Left ArrowRight Arrow

Hourly Observations for March 23, 2021

Temp ( °F °C ) Dew Point ( °F °C ) Humidity (%) Winds ( mph kmh ) Pressure ( in mb ) Visibility ( mi km ) Precip ( " mm )
12:53 am 00:53 Clear 62 16.7 42 5.6 48 48 E 5 7 30.06 1018 10 16 0.00 0.00
1:53 am 01:53 Mostly Clear 61 16.1 41 5 48 48 E 8 13 30.06 1018 10 16 0.00 0.00
2:53 am 02:53 Mostly Cloudy 61 16.1 43 6.1 52 52 E 10 17 30.06 1018 10 16 0.00 0.00
3:53 am 03:53 Mostly Clear 59 15 44 6.7 58 58 E 8 13 30.05 1018 10 16 0.00 0.00
4:53 am 04:53 Mostly Cloudy 59 15 45 7.2 60 60 E 8 13 30.05 1018 10 16 0.00 0.00
5:53 am 05:53 Cloudy 58 14.4 46 7.8 65 65 E 8 13 30.06 1018 10 16 0.00 0.00
6:53 am 06:53 Clear 58 14.4 45 7.2 62 62 E 15 24 30.06 1018 10 16 0.00 0.00
7:53 am 07:53 Sunny 57 13.9 45 7.2 64 64 VRB 6 9 30.07 1018 10 16 0.00 0.00
8:53 am 08:53 Sunny 57 13.9 45 7.2 64 64 E 10 17 30.08 1019 10 16 0.00 0.00
9:53 am 09:53 Sunny 59 15 45 7.2 60 60 ENE 8 13 30.09 1019 10 16 0.00 0.00
10:53 am 10:53 Sunny 60 15.6 45 7.2 58 58 VRB 6 9 30.10 1019 10 16 0.00 0.00
11:53 am 11:53 Sunny 63 17.2 46 7.8 54 54 E 12 19 30.06 1018 10 16 0.00 0.00
12:53 pm 12:53 Sunny 64 17.8 47 8.3 54 54 ESE 8 13 30.07 1018 10 16 0.00 0.00
1:53 pm 13:53 Sunny 66 18.9 47 8.3 50 50 ESE 10 17 30.03 1017 10 16 0.00 0.00
2:53 pm 14:53 Sunny 69 20.6 47 8.3 45 45 VRB 5 7 30.00 1016 10 16 0.00 0.00
3:53 pm 15:53 Sunny 68 20 47 8.3 47 47 E 6 9 29.98 1015 10 16 0.00 0.00
4:53 pm 16:53 Cloudy 68 20 47 8.3 47 47 SSE 9 15 29.96 1015 10 16 0.00 0.00
5:53 pm 17:53 Cloudy with Light Rain 68 20 47 8.3 47 47 ESE 3 6 29.96 1015 10 16 0.00 0.00
6:53 pm 18:53 Mostly Cloudy 67 19.4 48 8.9 51 51 Calm 29.96 1015 10 16 0.00 0.00
7:53 pm 19:53 Cloudy 64 17.8 52 11.1 65 65 Calm 29.98 1015 10 16 0.00 0.00
8:53 pm 20:53 Cloudy 64 17.8 53 11.7 68 68 Calm 29.98 1015 10 16 0.00 0.00
9:53 pm 21:53 Mostly Cloudy 64 17.8 51 10.6 63 63 SE 5 7 29.97 1015 10 16 0.00 0.00
10:53 pm 22:53 Mostly Cloudy 62 16.7 52 11.1 70 70 Calm 30.00 1016 10 16 0.00 0.00
11:53 pm 23:53 Cloudy with Light Rain 61 16.1 54 12.2 78 78 SE 12 19 29.95 1014 10 16 0.00 0.00

Powered by AerisWeather